Showing default

BEIDOU 3M23, 44542

Orbit data source: Space-Track

BEIDOU 3M23, 44542 is a payload satellite owned by CNSA (CN) in MEO that was launched on Sun, 22 Sep 2019 UTC via a CHANG ZHENG 3B/YZ-1 launch vehicle from the Xichang Space Center, China (XSC). Payload-class satellites include a variety of spacecraft equipped with specific instruments for various scientific and technological missions. These include communications satellites like Starlink; space stations such as the ISS; scientific satellites like the Hubble; Earth observation satellites from companies like Planet Labs, Umbra, and HawkEye 360; GPS; miniature CubeSats for education and research; and military/defense satellites.

Loading next visibility...
Identifier
44542, 2019-061A
Orbit
MEO
Country
Flag of CNCN / PRC
Related business
Manufacturer
CAST
Mission
Operational Defense Navigation
Bus & Motor
BD-3M/SAR, Unknown motor
Mass
1,014 kg wet, ~850 kg dry
Launch date (UTC)
2019-09-22 (7 years ago)
Launch vehicle
CHANG ZHENG 3B/YZ-1
Launch site
Xichang Space Center, China (XSC)
Object type
Payload
Rocket body
Debris
Shape & HBR
Box + 2 Pan, Unknown HBR
Radar Cross Section
8.984 m², Large (>1 m²)

Expand to show TLE details & history
Last TLE update: 1 day ago

TLE from 1 day ago
0 BEIDOU 3M23
1 44542U 19061A   26172.00112345  .00000076  00000-0  00000+0 0  9992
2 44542  54.3964 182.5989 0008377 358.6905   1.3314  1.86229071 45866
Epoch: 2026-06-21T00:01Z
TLE epoch observation values (Epoch: 2026-06-21T00:01:37.066Z)
Latitude
-0.00003°
Longitude
-87.01199°
Altitude
21,505.145 km
Speed
3.783 km/s
True Right ascension
12h 10m 24s
True Declination
0° 00' 00"
Sunlit
Object was in daylight at epoch
Visualization orbit readout
Latitude
Unknown
Longitude
Unknown
Altitude
Unknown
Speed
Unknown
Apparent Right ascension
Unknown
Apparent Declination
Unknown
Sunlit
N/A
Visualization observer readout
Local Sidereal Time
21:25:03
Azimuth
Unknown
Elevation
Unknown
Doppler factor
Unknown
Orbital elements
Apogee altitude
21,551.652 km
Perigee altitude
21,504.897 km
Semi-major axis
27,906.412 km
Eccentricity
0.00084
Inclination
54.3964°
RAAN
182.5989°
Arg. of periapsis
358.6905°
True anomaly
1.33363°
Mean anomaly
1.3314°
Eccentric anomaly
1.33252°
Mean motion
0.46557 °/min
Orbital period
773.24 mins
BSTAR
0
Loading maneuver chart data...
Computing Atmospheric mass density...
Loading historical data...
Loading historical data...
Loading historical data...
Loading historical data...
Loading historical data...
Loading historical data...
Loading historical data...
Other satellites on launch #61 in the year 2019 (2019-09-22 UTC)

Documentation

Showing up to 5 results
|